Location: Palomar Observatory
(33.3560°N, 116.8630°W)
Time: 19:19:37
(UTC-07:00)

Iridium 57 - Visible Passes

Search period start: 30 April 2016 00:00
Search period end: 10 May 2016 00:00
Orbit: 776 x 779 km, 86.4° (Epoch: 30 April)

Date Brightness Start Highest point End Pass type
(mag) Time Alt. Az. Time Alt. Az. Time Alt. Az.
30 Apr 8.0 03:31:26 10° NE 03:35:01 18° E 03:38:34 10° ESE visible
30 Apr 6.0 05:11:00 10° NNW 05:15:50 39° W 05:20:39 10° SSW visible
01 May 5.4 04:37:12 10° N 04:42:25 79° W 04:47:37 10° S visible
02 May 6.2 04:03:48 10° N 04:08:54 53° E 04:13:58 10° SSE visible
03 May 7.4 03:30:51 10° NNE 03:35:15 27° E 03:39:38 10° SE visible
03 May 6.5 05:11:32 10° NNW 05:15:49 27° W 05:20:07 10° SW visible
04 May 8.2 02:58:47 10° NE 03:01:29 14° ENE 03:04:11 10° ESE visible
04 May 5.7 04:37:26 10° NNW 04:42:29 52° W 04:47:26 10° SSW visible
05 May 5.6 04:03:47 10° N 04:09:01 80° E 04:13:18 15° S visible
06 May 6.7 03:30:33 10° NNE 03:35:27 40° E 03:39:15 16° SSE visible
06 May 7.0 05:12:21 10° NW 05:15:46 18° W 05:19:11 10° WSW visible
07 May 7.7 02:57:51 10° NNE 03:01:46 21° E 03:05:16 12° SE visible
07 May 6.2 04:37:49 10° NNW 04:42:29 34° W 04:45:42 18° SW visible
08 May 8.3 02:26:59 10° ENE 02:27:56 10° ENE 02:28:53 10° E visible
08 May 5.4 04:03:55 10° N 04:09:06 68° W 04:11:46 29° SSW visible
09 May 5.9 03:30:26 10° N 03:35:37 61° E 03:37:53 33° SSE visible
09 May 7.4 05:13:55 10° WNW 05:15:40 12° W 05:17:25 10° W visible
